GW5503 Weather Reports


time (UTC)temp
F
wind
direction
speed
knots
gust
knots
rain 1hr
in
rain 24hr
in
rain mn
in
humidity
%
barometer
mb
20260906124105 70 47 0.9 1.7 0.00 0.00 0.00 91 995.7
20260906123605 70 49 0.9 2.6 0.00 0.00 0.00 91 995.7
20260906123106 70 46 0.9 2.6 0.00 0.00 0.00 91 995.7
20260906122606 70 46 0.9 2.6 0.00 0.00 0.00 91 995.6
20260906122329 70 46 1.7 2.6 0.00 0.00 0.00 91 995.5
20260906121823 70 47 1.7 2.6 0.00 0.00 0.00 91 995.4
20260906121100 70 57 1.7 2.6 0.00 0.00 0.00 91 995.3
20260906120600 70 48 1.7 2.6 0.00 0.00 0.00 91 995.2
20260906120100 70 47 1.7 3.5 0.00 0.00 0.00 91 995.1
20260906115600 69 44 1.7 5.2 0.00 0.00 0.00 91 995.1
20260906115100 69 42 1.7 5.2 0.00 0.00 0.00 91 994.9
20260906114601 69 47 1.7 5.2 0.00 0.00 0.00 91 994.8
20260906114100 69 50 1.7 3.5 0.00 0.00 0.00 91 994.8
20260906113600 69 46 1.7 5.2 0.00 0.00 0.00 91 994.7
20260906113101 70 48 1.7 6.1 0.00 0.00 0.00 91 994.7
20260906112600 70 46 1.7 6.1 0.00 0.00 0.00 91 994.6
20260906112057 70 46 1.7 4.3 0.00 0.00 0.00 91 994.6
20260906111557 70 47 0.9 2.6 0.00 0.00 0.00 91 994.5
20260906111059 70 39 1.7 3.5 0.00 0.00 0.00 91 994.4
20260906110557 70 47 1.7 5.2 0.00 0.00 0.00 91 994.3
20260906110058 70 48 1.7 5.2 0.00 0.00 0.00 91 994.3
20260906105558 70 46 1.7 3.5 0.00 0.00 0.00 90 994.2
20260906105058 70 47 1.7 3.5 0.00 0.00 0.00 90 994.2
20260906104558 70 46 1.7 2.6 0.00 0.00 0.00 90 994.1
20260906104058 70 47 1.7 3.5 0.00 0.00 0.00 90 994.1
20260906103558 70 46 1.7 3.5 0.00 0.00 0.00 90 994.0
20260906103058 70 46 1.7 3.5 0.00 0.00 0.00 90 994.0
20260906102817 70 46 1.7 3.5 0.00 0.00 0.00 90 994.0
20260906102055 70 45 1.7 3.5 0.00 0.00 0.00 90 994.0
20260906101819 70 46 1.7 3.5 0.00 0.00 0.00 90 993.9
20260906101056 70 46 1.7 3.5 0.00 0.00 0.00 90 993.8
20260906100556 71 46 1.7 3.5 0.00 0.00 0.00 90 993.8
20260906100314 71 46 1.7 4.3 0.00 0.00 0.00 90 993.8
20260906095556 71 47 2.6 4.3 0.00 0.00 0.00 90 993.8
20260906095056 71 45 2.6 3.5 0.00 0.00 0.00 90 993.8
20260906094556 71 47 2.6 3.5 0.00 0.00 0.00 90 993.8
20260906094056 71 46 1.7 3.5 0.00 0.00 0.00 89 993.7
20260906094040 71 48 1.7 3.5 0.00 0.00 0.00 89 993.8
20260906093056 71 46 1.7 2.6 0.00 0.00 0.00 89 993.7
20260906092554 71 47 1.7 2.6 0.00 0.00 0.00 89 993.6
20260906092053 71 45 1.7 3.5 0.00 0.00 0.00 89 993.6
20260906091553 71 45 1.7 3.5 0.00 0.00 0.00 89 993.6
20260906091054 71 47 1.7 7.0 0.00 0.00 0.00 88 993.6
20260906090553 71 15 1.7 11.3 0.00 0.00 0.00 88 993.6
20260906090054 72 349 1.7 11.3 0.00 0.00 0.00 87 993.6
20260906085816 72 53 1.7 11.3 0.00 0.00 0.00 87 993.6
20260906085054 72 39 1.7 7.8 0.00 0.00 0.00 88 993.5
20260906084817 72 325 1.7 6.1 0.00 0.00 0.00 88 993.5
20260906084054 72 0 0.9 6.1 0.00 0.00 0.00 88 993.5
20260906083554 72 26 0.9 5.2 0.00 0.00 0.00 87 993.5
20260906083055 72 16 1.7 5.2 0.00 0.00 0.00 87 993.5
20260906082555 72 358 1.7 5.2 0.00 0.00 0.00 87 993.5
20260906082051 72 46 2.6 7.8 0.00 0.00 0.00 86 993.5
20260906081552 72 45 2.6 7.8 0.00 0.00 0.00 86 993.5
20260906081052 72 6 1.7 7.8 0.00 0.00 0.00 87 993.6
20260906080552 72 83 1.7 8.7 0.00 0.00 0.00 87 993.6
20260906080051 72 41 2.6 13.0 0.00 0.00 0.00 86 993.5
20260906075549 72 31 5.2 15.6 0.00 0.00 0.00 86 993.6
20260906075049 72 32 6.1 15.6 0.00 0.00 0.00 86 993.6
20260906074810 73 33 3.5 15.6 0.00 0.00 0.00 86 993.7
20260906074050 73 330 3.5 14.8 0.00 0.00 0.00 85 993.8
20260906073549 73 44 3.5 14.8 0.00 0.00 0.00 85 993.8
20260906073050 73 49 3.5 8.7 0.00 0.00 0.00 85 993.8
20260906072547 73 47 3.5 8.7 0.00 0.00 0.00 85 993.7
20260906072046 73 43 3.5 8.7 0.00 0.00 0.00 86 993.7
20260906071546 73 44 2.6 7.0 0.00 0.00 0.00 85 993.7
20260906071047 73 30 2.6 6.1 0.00 0.00 0.00 85 993.7
20260906070804 73 26 2.6 6.1 0.00 0.00 0.00 85 993.7
20260906070307 73 25 2.6 10.4 0.00 0.00 0.00 84 993.8
20260906065547 73 11 3.5 10.4 0.00 0.00 0.00 84 993.8
20260906065047 74 29 3.5 10.4 0.00 0.00 0.00 84 993.8
20260906064547 74 294 3.5 7.8 0.00 0.00 0.00 83 993.8
20260906064047 74 2 3.5 7.8 0.00 0.00 0.00 83 993.8
20260906063547 74 286 3.5 9.6 0.00 0.00 0.00 83 993.8
20260906063316 74 39 4.3 10.4 0.00 0.00 0.00 83 993.9
20260906062545 74 33 3.5 10.4 0.00 0.00 0.00 83 993.9
20260906062044 74 46 3.5 7.8 0.00 0.00 0.00 83 993.9
20260906061545 74 303 3.5 12.2 0.00 0.00 0.00 83 993.9
20260906061044 74 27 4.3 12.2 0.00 0.00 0.00 82 993.9
20260906060544 74 43 5.2 16.5 0.00 0.00 0.00 82 993.8
20260906060046 74 40 4.3 16.5 0.00 0.00 0.00 82 993.8
20260906055545 74 58 3.5 8.7 0.00 0.00 0.00 82 993.9
20260906055045 74 46 3.5 11.3 0.00 0.00 0.00 83 993.8
20260906054545 74 40 3.5 11.3 0.00 0.00 0.00 83 993.8
20260906054046 74 45 3.5 7.8 0.00 0.00 0.00 83 993.7
20260906053545 74 45 3.5 8.7 0.00 0.00 0.00 83 993.7
20260906053042 74 44 3.5 9.6 0.00 0.00 0.00 82 993.6
20260906052543 74 45 3.5 9.6 0.00 0.00 0.00 82 993.6
20260906052042 74 51 4.3 10.4 0.00 0.00 0.00 82 993.5
20260906051802 74 38 4.3 11.3 0.00 0.00 0.00 82 993.5
20260906051042 74 45 4.3 11.3 0.00 0.00 0.00 83 993.4
20260906050804 74 22 4.3 11.3 0.00 0.00 0.00 83 993.4
20260906050300 74 38 4.3 11.3 0.00 0.00 0.00 83 993.3
20260906045540 74 45 3.5 10.4 0.00 0.00 0.00 83 993.3
20260906045038 74 30 3.5 10.4 0.00 0.00 0.00 82 993.3
20260906044539 74 42 4.3 8.7 0.00 0.00 0.00 82 993.2
20260906044038 74 345 3.5 8.7 0.00 0.00 0.00 82 993.2
20260906043538 74 40 4.3 9.6 0.00 0.00 0.00 83 993.1
20260906043305 74 35 4.3 9.6 0.00 0.00 0.00 82 993.1
20260906042539 74 43 3.5 10.4 0.00 0.00 0.00 82 993.0
20260906042038 74 48 4.3 10.4 0.00 0.00 0.00 82 993.0
20260906041538 74 45 3.5 9.6 0.00 0.00 0.00 82 993.0
20260906041037 74 49 3.5 8.7 0.00 0.00 0.00 82 992.9
20260906040535 74 44 4.3 10.4 0.00 0.00 0.00 82 992.9
20260906040517 74 39 3.5 10.4 0.00 0.00 0.00 82 992.8
20260906035537 74 35 2.6 6.1 0.00 0.00 0.00 82 992.8
20260906035037 74 46 3.5 10.4 0.00 0.00 0.00 82 992.8
20260906034538 74 46 3.5 10.4 0.00 0.00 0.00 82 992.9
20260906034037 74 35 3.5 16.5 0.00 0.00 0.00 82 992.9
20260906033537 74 23 3.5 16.5 0.00 0.00 0.00 82 992.7
20260906033258 74 39 4.3 10.4 0.00 0.00 0.00 82 992.7
20260906032537 74 41 5.2 12.2 0.00 0.00 0.00 82 992.7
20260906032037 74 45 5.2 13.9 0.00 0.00 0.00 82 992.6
20260906031534 74 33 4.3 13.9 0.00 0.00 0.00 82 992.7
20260906031034 74 45 3.5 7.8 0.00 0.00 0.00 82 992.7
20260906030755 74 45 3.5 8.7 0.00 0.00 0.00 82 992.8
20260906030033 74 44 3.5 12.2 0.00 0.00 0.00 82 992.8
20260906025754 74 29 4.3 17.4 0.00 0.00 0.00 82 992.9
20260906025034 74 46 4.3 17.4 0.00 0.00 0.00 82 992.7
20260906024756 74 44 4.3 15.6 0.00 0.00 0.00 81 992.7
20260906024035 74 36 5.2 15.6 0.00 0.00 0.00 81 992.8
20260906023534 74 58 5.2 13.9 0.00 0.00 0.00 81 992.7
20260906023035 73 31 5.2 13.9 0.00 0.00 0.00 82 992.8
20260906022534 73 38 5.2 13.9 0.00 0.00 0.00 82 992.9
20260906022034 73 34 5.2 11.3 0.00 0.00 0.00 82 992.9
20260906022017 74 54 5.2 11.3 0.00 0.00 0.00 81 992.9
20260906021032 74 31 5.2 8.7 0.00 0.00 0.00 80 992.8
20260906020532 74 34 5.2 13.9 0.00 0.00 0.00 80 992.9
20260906020253 74 32 7.0 13.9 0.00 0.00 0.00 80 992.8
20260906015529 74 39 7.0 13.9 0.00 0.00 0.00 80 992.8
20260906015029 74 31 5.2 13.9 0.00 0.00 0.00 79 992.8
20260906014529 74 51 6.1 10.4 0.00 0.00 0.00 79 992.7
20260906014249 74 40 6.1 12.2 0.00 0.00 0.00 79 992.7
20260906013529 75 52 7.0 13.0 0.00 0.00 0.00 79 992.6
20260906013029 75 50 6.1 13.0 0.00 0.00 0.00 79 992.6
20260906012751 75 39 5.2 10.4 0.00 0.00 0.00 80 992.6
20260906012030 75 10 4.3 12.2 0.00 0.00 0.00 80 992.6
20260906011527 75 326 4.3 12.2 0.00 0.00 0.00 80 992.5
20260906011023 75 14 5.2 8.7 0.00 0.00 0.00 80 992.5
20260906010744 75 32 6.1 9.6 0.00 0.00 0.00 80 992.5
20260906010019 76 31 5.2 9.6 0.00 0.00 0.00 80 992.4
20260906005743 76 20 4.3 9.6 0.00 0.00 0.00 79 992.4
20260906005237 76 335 3.5 7.8 0.00 0.00 0.00 79 992.3
20260906004518 77 40 2.6 6.1 0.00 0.00 0.00 79 992.4
20260906004018 77 31 3.5 7.8 0.00 0.00 0.00 78 992.3
20260906003518 77 348 3.5 8.7 0.00 0.00 0.00 78 992.2
20260906003018 78 354 3.5 8.7 0.00 0.00 0.00 77 992.1
20260906002518 78 340 3.5 7.8 0.00 0.00 0.00 76 991.9
20260906002018 78 57 2.6 7.8 0.00 0.00 0.00 76 991.8
20260906001519 79 29 2.6 6.1 0.00 0.00 0.00 75 991.8
20260906001016 79 292 2.6 10.4 0.00 0.00 0.00 74 991.7
20260906000516 79 42 2.6 10.4 0.00 0.00 0.00 74 991.6
20260906000013 79 5 2.6 10.4 0.00 0.00 0.00 74 991.5
20260905235513 79 27 2.6 9.6 0.00 0.00 0.00 74 991.5
20260905235013 80 338 2.6 7.0 0.00 0.00 0.00 74 991.5
20260905234513 80 34 2.6 7.0 0.00 0.00 0.00 72 991.4
20260905234013 81 27 2.6 5.2 0.00 0.00 0.00 72 991.5
20260905233512 81 30 2.6 6.1 0.00 0.00 0.00 71 991.6
20260905233501 81 37 2.6 6.1 0.00 0.00 0.00 72 991.6
20260905232513 81 149 1.7 5.2 0.00 0.00 0.00 72 991.6
20260905232013 81 48 1.7 5.2 0.00 0.00 0.00 72 991.5
20260905231951 81 46 1.7 4.3 0.00 0.00 0.00 72 991.5
20260905231007 81 264 1.7 5.2 0.00 0.00 0.00 72 991.5
20260905230507 81 35 2.6 5.2 0.00 0.00 0.00 71 991.5
20260905230004 81 23 2.6 7.0 0.00 0.00 0.00 71 991.4
20260905225505 81 357 2.6 7.0 0.00 0.00 0.00 71 991.3
20260905225005 81 51 2.6 6.1 0.00 0.00 0.00 71 991.3
20260905224505 81 29 2.6 6.1 0.00 0.00 0.00 72 991.2
20260905224006 81 43 1.7 5.2 0.00 0.00 0.00 72 991.0
20260905223505 81 3 2.6 5.2 0.00 0.00 0.00 72 991.2
20260905223006 81 348 2.6 6.1 0.00 0.00 0.00 72 991.3
20260905222505 82 283 3.5 7.0 0.00 0.00 0.00 71 991.4
20260905222452 82 17 3.5 7.0 0.00 0.00 0.00 71 991.2
20260905221505 82 345 3.5 7.8 0.00 0.00 0.00 71 991.1
20260905221003 82 52 3.5 7.8 0.00 0.00 0.00 71 991.1
20260905220459 82 51 3.5 9.6 0.00 0.00 0.00 71 991.2
20260905220000 82 3 3.5 9.6 0.00 0.00 0.00 72 991.2
20260905215500 82 75 2.6 6.1 0.00 0.00 0.00 72 991.2
20260905215223 83 51 2.6 7.0 0.00 0.00 0.00 71 991.2
20260905214500 83 46 3.5 7.8 0.00 0.00 0.00 71 991.2
20260905214000 84 85 4.3 9.6 0.00 0.00 0.00 70 991.1
20260905213501 84 347 3.5 10.4 0.00 0.00 0.00 69 991.0
20260905213001 85 41 3.5 10.4 0.00 0.00 0.00 69 990.9
20260905212721 85 13 3.5 7.0 0.00 0.00 0.00 69 990.9
20260905212001 85 5 3.5 7.8 0.00 0.00 0.00 68 990.9
20260905211500 85 289 3.5 7.8 0.00 0.00 0.00 68 990.8
20260905210957 85 289 3.5 7.8 0.00 0.00 0.00 68 990.8
20260905210454 86 329 3.5 7.8 0.00 0.00 0.00 67 990.8
20260905205954 86 47 3.5 7.0 0.00 0.00 0.00 68 990.8
20260905205454 86 5 3.5 7.0 0.00 0.00 0.00 68 990.8
20260905205215 86 333 4.3 9.6 0.00 0.00 0.00 67 990.8
20260905204455 86 352 4.3 9.6 0.00 0.00 0.00 67 990.9
20260905203955 85 39 3.5 7.8 0.00 0.00 0.00 68 990.9
20260905203455 85 269 3.5 7.8 0.00 0.00 0.00 68 990.9
20260905202955 86 73 3.5 7.8 0.00 0.00 0.00 68 990.9
20260905202456 87 355 3.5 7.8 0.00 0.00 0.00 66 991.0
20260905201956 87 313 3.5 7.8 0.00 0.00 0.00 67 991.0
20260905201722 87 324 3.5 7.8 0.00 0.00 0.00 66 990.9
20260905200951 87 22 3.5 8.7 0.00 0.00 0.00 66 990.9
20260905200448 88 73 3.5 8.7 0.00 0.00 0.00 65 990.8
20260905195947 89 330 3.5 7.8 0.00 0.00 0.00 65 990.8
20260905195447 89 315 3.5 7.8 0.00 0.00 0.00 64 990.8
20260905195205 89 13 3.5 7.0 0.00 0.00 0.00 63 990.7
20260905194448 89 4 3.5 7.0 0.00 0.00 0.00 63 990.8
20260905194209 90 49 3.5 8.7 0.00 0.00 0.00 63 990.8
20260905193448 90 6 3.5 8.7 0.00 0.00 0.00 63 990.8
20260905193209 90 336 3.5 7.0 0.00 0.00 0.00 63 990.8
20260905192448 89 54 2.6 6.1 0.00 0.00 0.00 64 990.9
20260905191948 89 28 2.6 7.0 0.00 0.00 0.00 64 990.8
20260905191448 90 11 3.5 7.0 0.00 0.00 0.00 64 990.9
20260905190947 90 329 3.5 7.0 0.00 0.00 0.00 63 991.0
20260905190447 90 356 2.6 6.1 0.00 0.00 0.00 63 990.9
20260905185947 90 31 2.6 7.0 0.00 0.00 0.00 63 991.0
20260905185448 90 317 3.5 7.8 0.00 0.00 0.00 62 991.0
20260905184948 89 335 3.5 7.8 0.00 0.00 0.00 63 991.1
20260905184711 89 12 2.6 6.1 0.00 0.00 0.00 65 991.1
20260905183948 89 23 2.6 6.1 0.00 0.00 0.00 64 991.1
20260905183717 89 322 2.6 7.0 0.00 0.00 0.00 65 991.0
20260905182949 90 42 2.6 7.0 0.00 0.00 0.00 65 991.0
20260905182447 90 291 2.6 5.2 0.00 0.00 0.00 63 991.1
20260905181948 89 12 1.7 5.2 0.00 0.00 0.00 65 991.1
20260905181449 90 5 2.6 7.8 0.00 0.00 0.00 65 991.2
20260905180948 90 47 2.6 7.8 0.00 0.00 0.00 64 991.2
20260905180446 90 46 1.7 7.0 0.00 0.00 0.00 64 991.1
20260905175947 90 353 1.7 5.2 0.00 0.00 0.00 65 991.1
20260905175447 89 353 2.6 5.2 0.00 0.00 0.00 66 991.1
20260905174947 89 9 1.7 5.2 0.00 0.00 0.00 67 991.1
20260905174447 90 56 1.7 6.1 0.00 0.00 0.00 65 991.1
20260905173947 90 21 1.7 6.1 0.00 0.00 0.00 66 991.2
20260905173448 89 314 1.7 6.1 0.00 0.00 0.00 67 991.2
20260905172948 89 334 2.6 7.0 0.00 0.00 0.00 67 991.2
20260905172705 89 358 1.7 7.0 0.00 0.00 0.00 67 991.2
20260905171947 88 250 1.7 5.2 0.00 0.00 0.00 69 991.2
20260905171447 89 55 2.6 7.8 0.00 0.00 0.00 69 991.3
20260905170946 89 346 2.6 7.8 0.00 0.00 0.00 67 991.4
20260905170444 88 23 1.7 3.5 0.00 0.00 0.00 70 991.4
20260905165943 88 309 1.7 4.3 0.00 0.00 0.00 70 991.4
20260905165444 88 12 2.6 7.0 0.00 0.00 0.00 70 991.5
20260905164943 88 52 2.6 7.0 0.00 0.00 0.00 69 991.5
20260905164443 88 350 2.6 7.8 0.00 0.00 0.00 68 991.5
20260905163944 88 325 2.6 7.8 0.00 0.00 0.00 69 991.5
20260905163444 88 292 2.6 5.2 0.00 0.00 0.00 70 991.5
20260905162945 87 287 1.7 6.1 0.00 0.00 0.00 71 991.5
20260905162444 87 26 2.6 6.1 0.00 0.00 0.00 72 991.5
20260905161945 87 14 2.6 6.1 0.00 0.00 0.00 71 991.6
20260905161445 87 82 2.6 7.0 0.00 0.00 0.00 71 991.6
20260905160945 87 352 3.5 7.0 0.00 0.00 0.00 71 991.6
20260905160441 87 13 2.6 6.1 0.00 0.00 0.00 71 991.5
20260905155942 87 282 2.6 5.2 0.00 0.00 0.00 73 991.5
20260905155441 86 324 2.6 5.2 0.00 0.00 0.00 74 991.4
20260905154942 86 42 2.6 6.1 0.00 0.00 0.00 73 991.3
20260905154442 86 6 2.6 7.8 0.00 0.00 0.00 73 991.2
20260905153942 86 354 3.5 7.8 0.00 0.00 0.00 73 991.2
20260905153442 86 52 3.5 7.0 0.00 0.00 0.00 73 991.3
20260905152942 86 14 3.5 7.0 0.00 0.00 0.00 73 991.3
20260905152928 86 26 2.6 5.2 0.00 0.00 0.00 73 991.2
20260905151942 86 344 2.6 5.2 0.00 0.00 0.00 75 991.2
20260905151442 86 306 2.6 6.1 0.00 0.00 0.00 75 991.1
20260905150942 85 1 2.6 6.1 0.00 0.00 0.00 76 991.0
20260905150439 85 54 1.7 6.1 0.00 0.00 0.00 77 991.0
20260905145940 85 359 1.7 6.1 0.00 0.00 0.00 77 990.9
20260905145440 85 9 2.6 6.1 0.00 0.00 0.00 77 990.9
20260905145424 85 12 1.7 5.2 0.00 0.00 0.00 79 990.9
20260905144440 85 211 1.7 3.5 0.00 0.00 0.00 78 990.9
20260905143940 84 250 1.7 3.5 0.00 0.00 0.00 79 990.9
20260905143440 84 312 1.7 3.5 0.00 0.00 0.00 80 990.8
20260905142940 83 18 1.7 4.3 0.00 0.00 0.00 81 990.7
20260905142703 83 349 1.7 4.3 0.00 0.00 0.00 81 990.7
20260905141941 83 318 1.7 3.5 0.00 0.00 0.00 82 990.7
20260905141437 82 324 2.6 6.1 0.00 0.00 0.00 82 990.7
20260905140938 82 19 2.6 6.1 0.00 0.00 0.00 82 990.6
20260905140434 82 41 2.6 5.2 0.00 0.00 0.00 83 990.6
20260905135935 82 25 1.7 5.2 0.00 0.00 0.00 82 990.6
20260905135432 82 69 1.7 4.3 0.00 0.00 0.00 83 990.5
20260905134933 82 314 1.7 4.3 0.00 0.00 0.00 83 990.6
20260905134432 82 3 1.7 5.2 0.00 0.00 0.00 83 990.8
20260905133932 81 64 2.6 5.2 0.00 0.00 0.00 83 990.9
20260905133432 81 29 1.7 5.2 0.00 0.00 0.00 83 991.1
20260905132932 81 316 1.7 5.2 0.00 0.00 0.00 84 991.1
20260905132432 81 310 1.7 5.2 0.00 0.00 0.00 84 991.0
20260905131933 81 290 1.7 4.3 0.00 0.00 0.00 85 990.9
20260905131430 81 294 1.7 4.3 0.00 0.00 0.00 84 990.8
20260905130929 81 288 1.7 3.5 0.00 0.00 0.00 85 990.6
20260905130430 80 335 0.9 3.5 0.00 0.00 0.00 85 990.5
20260905125927 80 296 1.7 3.5 0.00 0.00 0.00 85 990.5
20260905125426 80 267 0.9 3.5 0.00 0.00 0.00 86 990.4
20260905125142 80 312 0.9 1.7 0.00 0.00 0.00 86 990.4
20260905124647 80 331 0.9 1.7 0.00 0.00 0.00 86 990.3